Regional Weather Roundup
Issued by NWS

Home | Current Version | Previous Version | Graphics & Text | Print | Product List | Glossary On
Versions: 1 2 3 4 5 6 7 8 9 10 11 12 13 14 15 16 17 18 19 20 21 22 23 24 25 26 27 28 29 30 31 32 33 34 35 36 37 38 39 40 41 42 43 44 45 46 47 48 49 50
000
ASUS45 KTFX 041610
RWRMT
MONTANA REGIONAL WEATHER ROUNDUP
NATIONAL WEATHER SERVICE GREAT FALLS MT
1000 AM MDT TUE AUG 04 2015

NOTE: "FAIR" INDICATES FEW OR NO CLOUDS BELOW 12000 FEET WITH NO
SIGNIFICANT WEATHER AND/OR OBSTRUCTIONS TO VISIBILITY.

MTZ001>007-043-041700-
WEST OF THE DIVIDE

CITY           SKY/WX    TMP DP  RH WIND       PRES   REMARKS
KALISPELL      CLOUDY    68  55  63 CALM      29.93F
MISSOULA       CLOUDY    69  46  43 CALM      29.99S
BUTTE          SUNNY     71  46  40 N3        30.10F
MULLAN PASS    MOSUNNY   61  42  49 VRB5      30.12R
DEER LODGE       N/A     73  45  35 N5        30.07F
EUREKA           N/A     73  52  46 CALM      29.92F
HAMILTON         N/A     73  46  38 S6        30.00S
LIBBY            N/A     72  52  49 CALM      29.92F
PLAINS           N/A     77  46  33 CALM      29.95S
RONAN            N/A     76  48  37 CALM      30.01S
$$

MTZ008-052>055-041700-
SOUTHWEST MONTANA

CITY           SKY/WX    TMP DP  RH WIND       PRES   REMARKS
BOZEMAN        CLOUDY    68  56  65 W12       30.03S
DILLON         SUNNY     67  55  65 SW8       30.09F
W YELLOWSTONE  CLOUDY    59  52  77 SW10      30.22S
$$

MTZ009-010-012-014-046-048-049-054-041700-
EAST SLOPES AND CENTRAL MONTANA

CITY           SKY/WX    TMP DP  RH WIND       PRES   REMARKS
CUT BANK       CLOUDY    77  43  29 W9        29.94R
GREAT FALLS    CLOUDY    80  43  26 SW7       29.92S
MALMSTROM AFB  CLOUDY    78  46  32 W3        29.92S
HELENA         CLOUDY    77  45  32 W6        29.97S
CONRAD           N/A     76  51  41 E1        29.96S
$$

MTZ011-013-016-021-045-047-050-051-041700-
NORTH CENTRAL MONTANA

CITY           SKY/WX    TMP DP  RH WIND       PRES   REMARKS
HAVRE          PTSUNNY   79  51  37 W12       29.85R
LEWISTOWN      CLOUDY    77  46  33 NW6       29.97R
CHINOOK          N/A     73  55  53 CALM      29.84S
FORT BENTON      N/A     77  48  36 CALM      29.87F
$$

MTZ017>020-022>027-061-062-041700-
NORTHEAST MONTANA

CITY           SKY/WX    TMP DP  RH WIND       PRES   REMARKS
GLASGOW        SUNNY     75  51  43 SE16      29.88F
JORDAN           N/A     84  57  39 S10       29.87F
SIDNEY         MOSUNNY  N/A N/A N/A E9        29.93F
WOLF POINT     MOSUNNY   77  53  43 E10       29.91F
MALTA            N/A     78  56  46 E1        29.82F
POPLAR           N/A     79  54  41 E15       29.91F
$$

MTZ028>42-056>058-041700-
SOUTHCENTRAL AND SOUTHEAST MONTANA

CITY           SKY/WX    TMP DP  RH WIND       PRES   REMARKS
BAKER          SUNNY     76  57  51 SE17      29.97S
BILLINGS       CLOUDY    78  50  37 SW21      29.93F
LIVINGSTON     CLOUDY    74  48  39 W13       30.02S
MILES CITY     MOSUNNY   80  58  46 SE10      29.89F
EKALAKA          N/A     77  56  48 E20       29.95S
FORSYTH          N/A     79  59  50 NE8       29.86F
LAUREL           N/A     76  48  37 SW15      29.94F
$$

REGIONAL REPORTS...DAKOTAS

CITY           SKY/WX    TMP DP  RH WIND       PRES   REMARKS
WILLISTON      SUNNY     78  49  35 SE13G23   29.97S
MINOT          SUNNY     73  52  47 VRB7      30.00F
DICKINSON      SUNNY     75  56  51 SE14      29.98S
CROSBY         FAIR      75  50  41 SE10      29.98F
BISMARCK       SUNNY     76  56  49 VRB6      30.01R
GRAND FORKS    MOSUNNY   69  54  58 NE5       30.03S
FARGO          SUNNY     73  51  46 N7        30.02S
BUFFALO SD       N/A     77  59  53 SE16      29.91F
RAPID CITY     CLOUDY    69  62  78 S9        29.98S
$$

REGIONAL REPORTS...WYOMING/IDAHO/WASHINGTON

CITY           SKY/WX    TMP DP  RH WIND       PRES   REMARKS
GILLETTE         N/A     75  57  53 SW10      29.97F
SHERIDAN       CLOUDY    77  50  38 VRB3      29.95S
BUFFALO WY     PTSUNNY   74  50  42 CALM      30.01F
CODY           CLOUDY    68  50  52 W6        30.08S
YELLOWSTONE LA   N/A     54  49  83 CALM      30.30S
IDAHO FALLS    SUNNY     70  53  54 NE6       30.15S
SALMON         MOSUNNY   70  50  49 N5        30.03F
BOISE          SUNNY     75  51  43 CALM      30.02R
SPOKANE        PTSUNNY   72  46  39 S12       29.92S
$$

REGIONAL REPORTS...ALBERTA

CITY           SKY/WX    TMP DP  RH WIND       PRES   REMARKS
EDMONTON       LGT RAIN  61  55  82 W8        29.86R
CALGARY        PTSUNNY   61  54  77 NW16      29.94F
LETHBRIDGE     CLOUDY    73  50  43 W10G20    29.88R
MEDICINE HAT   CLOUDY    77  54  44 SW15      29.79S
WATERTON GATE    N/A     73  45  35 W8          N/A
CARDSTON         N/A     73  45  35 W8          N/A
MILK RIVER       N/A     75  46  35 W2          N/A
ONEFOUR          N/A     70  52  52 W6          N/A
$$

REGIONAL REPORTS...SASKATCHEWAN

CITY           SKY/WX    TMP DP  RH WIND       PRES   REMARKS
SWIFT CURRENT  MOSUNNY   73  55  53 SE20G26   29.86R
REGINA         PTSUNNY   73  54  49 SE16G23   29.96F
SASKATOON      CLOUDY    70  54  56 SE16      29.94R
CYPRESS HILLS    N/A     66  50  55 S6          N/A
VAL MARIE        N/A     77  54  44 S16G22      N/A
ROCKGLEN         N/A     73  54  49 SE13G21     N/A
$$


USA.gov is the U.S. government's official web portal to all federal, state and local government web resources and services.